Regional Weather Roundup
Issued by NWS

Home | Current Version | Previous Version | Graphics & Text | Print | Product List | Glossary On
Versions: 1 2 3 4 5 6 7 8 9 10 11 12 13 14 15 16 17 18 19 20 21 22 23 24 25 26 27 28 29 30 31 32 33 34 35 36 37 38 39 40 41 42 43 44 45 46 47 48 49 50
000
ASUS43 KDTX 271310
RWRMI
MICHIGAN HOURLY REGIONAL WEATHER ROUNDUP
NATIONAL WEATHER SERVICE DETROIT/PONTIAC MI
800 AM EST THU NOV 27 2014

NOTE: "FAIR" INDICATES FEW OR NO CLOUDS BELOW 12,000 FEET WITH NO
SIGNIFICANT WEATHER AND/OR OBSTRUCTION TO VISIBILITY.

MIZ047>049-052>055-059>063-066>070-074>076-081>083-271400-
SOUTHEAST LOWER MICHIGAN

CITY           SKY/WX    TMP DP  RH WIND       PRES   REMARKS
ADRIAN         CLOUDY    28  20  71 NW7       30.16R WCI  21
ALMA           CLOUDY    26  24  92 W7        30.15R WCI  19
ANN ARBOR      CLOUDY    28  19  69 W8        30.13R WCI  20
BAD AXE        CLOUDY    28  24  83 NW8       30.09R WCI  20
CARO           CLOUDY    28  25  86 W8        30.11R WCI  20
DETROIT CITY   CLEAR     28  20  71 W3        30.13R
DETROIT        MOCLDY    26  19  74 NW7       30.14R WCI  18
FLINT          CLOUDY    30  23  75 NW7       30.13S WCI  23
GROSSE ILE     MOCLDY    27  21  80 NW3       30.13S
HILLSDALE      CLOUDY    28  22  79 W6        30.13R WCI  21
HOWELL         CLOUDY    28  23  82 NW8       30.12S WCI  20

CITY           SKY/WX    TMP DP  RH WIND       PRES   REMARKS
JACKSON        CLOUDY    27  21  78 W7        30.14R WCI  19
LAMBERTVILLE   CLOUDY    30  23  74 W5        30.15S WCI  25
LANSING        CLOUDY    28  22  78 NW8       30.15S WCI  20
LAPEER         CLOUDY    28  23  83 NW5       30.11S WCI  22
MASON          CLOUDY    28  23  80 W8        30.14R WCI  20
MONROE         CLOUDY    27  21  80 CALM      30.13S
MT. CLEMENS    PTCLDY    26  24  92 W8        30.10R WCI  17
PONTIAC        CLOUDY    26  21  81 NW5       30.10S WCI  20
PORT HOPE        N/A     30  23  75 W9        30.06R WCI  22
PORT HURON     CLOUDY    28  23  80 W5        30.11R WCI  23
TRI CITIES     MOCLDY    29  23  78 NW9       30.14R WCI  20
TROY           CLOUDY    30  22  73 W5        30.13S WCI  25
SAGINAW HB     CLOUDY    30  27  86 NW8       30.12S WCI  23
$$
MIZ043>046-050>051-056>058-064>065-071>073-077>080-271400-
SOUTHWEST LOWER MICHIGAN

CITY           SKY/WX    TMP DP  RH WIND       PRES   REMARKS
BATTLE CREEK   CLOUDY    28  21  75 W6        30.16R WCI  22
BENTON HARBOR  LGT SNOW  31  27  85 NW10G20   30.20R FOG     WCI  22
BIG RAPIDS     CLOUDY    26  25  96 W3        30.13S
COLDWATER      PTCLDY    26  22  87 W6        30.16S WCI  19
FREMONT        CLOUDY    26  25  96 CALM      30.15F FOG
HOLLAND        LGT SNOW  30  27  88 CALM      30.19S FOG
GRAND RAPIDS   LGT SNOW  27  23  85 NW3       30.17R FOG
IONIA          CLOUDY    28  25  86 NW6       30.15R WCI  22
KALAMAZOO      CLOUDY    28  21  75 W6        30.18R WCI  22
LUDINGTON      LGT SNOW  29  28  95 N5        30.18R VSB 1   WCI  24
MARSHALL       MOCLDY    24  20  87 W5        30.15S WCI  18
MOUNT PLEASANT PTCLDY    26  22  86 W6        30.13S WCI  19
MUSKEGON       LGT SNOW  30  26  85 NW6       30.18S VSB 1   WCI  24
SOUTH HAVEN    LGT SNOW  30  29  96 CALM      30.19S
$$
MIZ016>042-271400-
NORTHERN LOWER MICHIGAN

CITY           SKY/WX    TMP DP  RH WIND       PRES   REMARKS
ALPENA         LGT SNOW  26  25  96 W7        30.11R VSB 1   WCI  18
BEAVER ISLAND  CLOUDY    23  16  75 NW7G21    30.20R WCI  14
BELLAIRE       LGT SNOW  26  22  85 NW6       30.19R WCI  19
CADILLAC       FLURRIES  25  22  88 N9        30.10S WCI  16
CHARLEVOIX     LGT SNOW  24  19  81 N17G25    30.21R WCI  10
FRANKFORT      LGT SNOW  26  23  88 N12G20    30.20R WCI  16
GAYLORD        CLOUDY    22  18  85 N7        30.11R WCI  13
GRAYLING       CLOUDY    26  23  91 NW9       30.11S WCI  16
HARBOR SPRINGS FLURRIES  22  17  78 NW8       30.18R WCI  13
HOUGHTON LAKE  CLOUDY    25  21  85 NW6       30.10S WCI  18
MANISTEE       CLOUDY    27  23  86 N10       30.19R WCI  17
OSCODA         FLURRIES  27  25  93 NW9       30.09S WCI  17
PELLSTON       CLOUDY    22  15  75 N16       30.18R WCI   8
ROGERS CITY    LGT SNOW  27  26  97 NW17G24   30.13R VSB 3/4 WCI  14
TRAVERSE CITY  LGT SNOW  27  20  75 N16G23    30.17R WCI  15
$$
MIZ007>008-015-271400-
EASTERN UPPER MICHIGAN

CITY           SKY/WX    TMP DP  RH WIND       PRES   REMARKS
KINROSS        CLOUDY    19  18  93 W13       30.14R WCI   7
MACKINAC ISLAN CLOUDY    22  16  78 NW14G26   30.16R WCI   9
NEWBERRY       CLEAR     16  12  86 NW8       30.17S WCI   5
S. S. MARIE    CLOUDY    23  13  65 NW10G21   30.10F WCI  12
MUNISING         N/A     21  11  65 NW13      30.24S WCI   9
$$
MIZ004>006-011>014-085-271400-
CENTRAL UPPER MICHIGAN

CITY           SKY/WX    TMP DP  RH WIND       PRES   REMARKS
MANISTIQUE     FLURRIES  16  14  90 NW12G17   30.21R WCI   3
ESCANABA       CLEAR     12   3  67 NW10      30.27R WCI  -1
MENOMINEE      CLOUDY    16   7  67 N12       30.29R WCI   3
SAWYER-GWINN   CLEAR      7   1  78 NW9       30.23S WCI  -7
$$
MIZ001>003-009>011-084-271400-
WESTERN UPPER MICHIGAN

CITY           SKY/WX    TMP DP  RH WIND       PRES   REMARKS
IRON MOUNTAIN  PTCLDY     5   0  79 NW6       30.27R WCI  -6
HOUGHTON       CLOUDY     7  -2  66 N10       30.29S WCI  -8
COPPER HARBOR    N/A     14   9  80 NE18G26   30.31R WCI  -3
IRONWOOD       MOCLDY    10   7  85 N6        30.31R WCI   1
$$

ABBREVIATIONS USED IN REMARKS
   TC - TEMPERATURE IN CELSIUS
  WCI - WIND CHILL INDEX
   HX - HEAT INDEX
  VSB - VISIBILITY



USA.gov is the U.S. government's official web portal to all federal, state and local government web resources and services.